Regional Weather Roundup
Issued by NWS

Current Version | Previous Version | Text Only | Print | Product List | Glossary Off
Versions: 1 2 3 4 5 6 7 8 9 10 11 12 13 14 15 16 17 18 19 20 21 22 23 24 25 26 27 28 29 30 31 32 33 34 35 36 37 38 39 40 41 42 43 44 45 46 47 48 49 50

000
ASUS44 KMEG 201610
RWRTN
TENNESSEE HOURLY STATE WEATHER ROUNDUP
NATIONAL WEATHER SERVICE MEMPHIS TN
1000 AM CST MON NOV 20 2017

TNZ002-004-019-021-049-052-054-088>092-201700-
WEST TENNESSEE

CITY           SKY/WX    TMP DP  RH WIND       PRES   REMARKS
MEMPHIS INTL   CLOUDY    45  27  49 S9        30.26F
NWS MEMPHIS      N/A     44 N/A N/A MISG        N/A
JACKSON        CLOUDY    44  28  53 S7        30.26F
DYERSBURG      CLOUDY    42  27  55 S6        30.27S
COVINGTON      SUNNY     43  28  56 S6        30.27S
UNION CITY     SUNNY     43  28  56 S9        30.24F
BOLIVAR        SUNNY     41  30  65 SE6       30.26S
PARIS          SUNNY     43  28  56 S7        30.24F
HUNTINGDON     SUNNY     43  28  56 S6        30.24F
LEXINGTON      SUNNY     41  28  60 SE5       30.27S
SELMER         SUNNY     41  28  60 CALM      30.26S
SAVANNAH       SUNNY     43  28  56 SE5       30.26F
$$

TNZ008-025-027-028-033-062-065-066-201700-
NORTH MIDDLE TENNESSEE

CITY           SKY/WX    TMP DP  RH WIND       PRES   REMARKS
NASHVILLE      PTSUNNY   42  25  50 S7        30.28F
PORTLAND       SUNNY     41  27  56 VRB7      30.25F
CLARKSVILLE    SUNNY     41  25  53 S9        30.26F
SMYRNA         SUNNY     41  26  55 SE5       30.30S
COOKEVILLE     SUNNY     41  28  60 CALM      30.26S
GALLATIN       SUNNY     39  28  65 SE6       30.31S WCI  35
CROSSVILLE     SUNNY     41  25  53 CALM      30.24F
$$

TNZ061-075-076-078-094-096-097-201700-
SOUTH MIDDLE TENNESSEE

CITY           SKY/WX    TMP DP  RH WIND       PRES   REMARKS
FAYETTEVILLE   SUNNY     43  27  52 NE6       30.25S
TULLAHOMA      SUNNY     43  21  42 CALM      30.25S
WINCHESTER     SUNNY     43  25  49 CALM      30.25F
MCMINNVILLE    SUNNY     41  25  52 VRB3      30.26S
COLUMBIA       SUNNY     41  30  65 E5        30.25F
SHELBYVILLE    SUNNY     43  27  52 NE3       30.27F
$$

TNZ017-018-042-046-047-201700-
NORTHEAST TENNESSEE

CITY           SKY/WX    TMP DP  RH WIND       PRES   REMARKS
TRI CITIES     SUNNY     39  29  67 CALM      30.27F
ELIZABETHTON   SUNNY     43  23  45 CALM      30.26F
$$

TNZ012-013-036-069-073-074-201700-
CENTRAL EAST TENNESSEE

CITY           SKY/WX    TMP DP  RH WIND       PRES   REMARKS
KNOXVILLE      MOSUNNY   41  33  73 E3        30.28F
OAK RIDGE      SUNNY     41  28  60 E3        30.30F
DOWNTOWN KNOXV SUNNY     41  34  75 CALM      30.30F
GATLINBURG     SUNNY     39  32  75 CALM      30.28F
MORRISTOWN     SUNNY     41  28  60 VRB3      30.27F
JACKSBORO      SUNNY     39  30  70 CALM      30.32F
$$

TNZ083-085-099-201700-
SOUTHEAST TENNESSEE

CITY           SKY/WX    TMP DP  RH WIND       PRES   REMARKS
CHATTANOOGA    PTSUNNY   44  28  53 N7        30.29S
$$

SKY/WX REPORTED AS FAIR MEANS FEW OR NO CLOUDS BELOW
12 THOUSAND FEET.




USA.gov is the U.S. government's official web portal to all federal, state and local government web resources and services.